Gadsden, AL

6:38 AM CDT on July 22, 2017 (GMT -0500)
Gadsden Municipal

Weather History for KGAD - November, 2011

Change the Weather History Date:

Wednesday, November 16, 2011

  Actual Average Record
Temperature  
Mean Temperature 63 °F -  
Max Temperature 71 °F 60 °F 77 °F (1931)
Min Temperature 55 °F 37 °F 15 °F (1940)
Degree Days  
Heating Degree Days 2    
Growing Degree Days 13 (Base 50)    
Moisture  
Dew Point 60 °F    
Average Humidity 87    
Maximum Humidity 100    
Minimum Humidity 77    
Precipitation  
Precipitation 0.00 in - - ()
Sea Level Pressure  
Sea Level Pressure 29.83 in    
Wind  
Wind Speed 5 mph (West)    
Max Wind Speed 13 mph    
Max Gust Speed 20 mph    
Visibility 8 miles    
Events Thunderstorm    
Averages and records for this station are not official NWS values.
T = Trace of Precipitation, MM = Missing Value Source: NWS Daily Summary

Daily Weather History Graph

Daily Weather History Graph

Search for Another Location

Airport or City:

Trip Planner

Search our weather history database for the weather conditions in past years. The results will help you decide how hot, cold, wet, or windy it might be!

Date:

Astronomy

Nov. 16, 2011 Rise Set
Actual Time 6:17 AM CST 4:40 PM CST
Civil Twilight 5:50 AM CST 5:06 PM CST
Nautical Twilight 5:20 AM CST 5:37 PM CST
Astronomical Twilight 4:50 AM CST 6:06 PM CST
Moon 9:51 PM CST (11/16) 10:54 AM CST (11/16)
Length of Visible Light 11h 16m
Length of Day
10h 22m
Waning Gibbous, 70% of the Moon is Illuminated
Nov 16
Waning Gibbous
Nov 18
Last Quarter
Nov 25
New
Dec 2
First Quarter
Dec 10
Full

Hourly Weather History & Observations

Time (CST) Temp. Dew Point Humidity Pressure Visibility Wind Dir Wind Speed Gust Speed Precip Events Conditions
12:15 AM 60.8 °F 60.8 °F 100% 29.88 in 3.0 mi East 3.5 mph - N/A   Mostly Cloudy
12:35 AM 62.6 °F 60.8 °F 94% 29.87 in 3.0 mi NNE 5.8 mph - N/A   Overcast
12:55 AM 62.6 °F 60.8 °F 94% 29.87 in 4.0 mi Calm Calm - N/A   Overcast
1:15 AM 62.6 °F 60.8 °F 94% 29.86 in 3.0 mi NNE 3.5 mph - N/A   Overcast
1:35 AM 62.6 °F 60.8 °F 94% 29.85 in 4.0 mi Calm Calm - N/A   Overcast
1:55 AM 62.6 °F 60.8 °F 94% 29.86 in 4.0 mi Calm Calm - N/A   Overcast
2:15 AM 62.6 °F 60.8 °F 94% 29.86 in 4.0 mi Calm Calm - N/A   Overcast
2:35 AM 62.6 °F 60.8 °F 94% 29.85 in 3.0 mi SE 4.6 mph - N/A   Overcast
2:55 AM 62.6 °F 60.8 °F 94% 29.85 in 3.0 mi Calm Calm - N/A   Overcast
3:15 AM 62.6 °F 60.8 °F 94% 29.85 in 3.0 mi Calm Calm - N/A   Mostly Cloudy
3:35 AM 64.4 °F 62.6 °F 94% 29.82 in 6.0 mi SSE 5.8 mph - N/A   Mostly Cloudy
3:55 AM 64.4 °F 62.6 °F 94% 29.83 in 6.0 mi South 3.5 mph - N/A   Overcast
4:15 AM 64.4 °F 64.4 °F 100% 29.82 in 9.0 mi South 5.8 mph - N/A   Overcast
4:35 AM 64.4 °F 62.6 °F 94% 29.82 in 10.0 mi SW 3.5 mph - N/A   Overcast
5:15 AM 64.4 °F 62.6 °F 94% 29.83 in 10.0 mi WSW 5.8 mph - N/A Thunderstorm Overcast
5:35 AM 64.4 °F 62.6 °F 94% 29.83 in 4.0 mi Calm Calm - N/A Thunderstorm Thunderstorm
5:55 AM 64.4 °F 62.6 °F 94% 29.83 in 10.0 mi South 3.5 mph - N/A   Scattered Clouds
6:15 AM 62.6 °F 60.8 °F 94% 29.83 in 10.0 mi SSE 3.5 mph - N/A   Mostly Cloudy
6:35 AM 64.4 °F 62.6 °F 94% 29.82 in 10.0 mi Calm Calm - N/A   Mostly Cloudy
6:55 AM 64.4 °F 62.6 °F 94% 29.81 in 9.0 mi SE 4.6 mph - N/A   Overcast
7:35 AM 64.4 °F 62.6 °F 94% 29.81 in 9.0 mi Calm Calm - N/A   Overcast
7:55 AM 64.4 °F 62.6 °F 94% 29.81 in 6.0 mi SSW 3.5 mph - N/A   Overcast
8:15 AM 66.2 °F 64.4 °F 94% 29.81 in 6.0 mi South 5.8 mph - N/A   Overcast
8:35 AM 66.2 °F 64.4 °F 94% 29.81 in 7.0 mi South 5.8 mph - N/A   Overcast
8:55 AM 68.0 °F 64.4 °F 88% 29.80 in 8.0 mi SSW 5.8 mph - N/A   Overcast
9:15 AM 68.0 °F 64.4 °F 88% 29.80 in 10.0 mi SW 8.1 mph 17.3 mph N/A   Overcast
9:35 AM 68.0 °F 64.4 °F 88% 29.80 in 7.0 mi SSW 11.5 mph 18.4 mph N/A   Overcast
10:15 AM 68.0 °F 64.4 °F 88% 29.79 in 5.0 mi SSW 8.1 mph 16.1 mph N/A   Mostly Cloudy
10:35 AM 69.8 °F 66.2 °F 88% 29.79 in 9.0 mi SW 12.7 mph 18.4 mph N/A   Scattered Clouds
10:55 AM 69.8 °F 64.4 °F 83% 29.78 in 10.0 mi SW 10.4 mph - N/A   Scattered Clouds
11:15 AM 69.8 °F 64.4 °F 83% 29.77 in 10.0 mi SW 11.5 mph 17.3 mph N/A   Scattered Clouds
11:35 AM 69.8 °F 64.4 °F 83% 29.78 in 10.0 mi SSW 10.4 mph 16.1 mph N/A   Mostly Cloudy
11:55 AM 69.8 °F 64.4 °F 83% 29.77 in 10.0 mi SW 6.9 mph - N/A   Mostly Cloudy
12:15 PM 71.6 °F 64.4 °F 78% 29.77 in 10.0 mi SSW 9.2 mph - N/A   Mostly Cloudy
12:35 PM 69.8 °F 64.4 °F 83% 29.77 in 5.0 mi WSW 4.6 mph - N/A   Overcast
12:55 PM 69.8 °F 64.4 °F 83% 29.76 in 10.0 mi South 8.1 mph 18.4 mph N/A   Overcast
1:15 PM 69.8 °F 64.4 °F 83% 29.74 in 10.0 mi SSW 9.2 mph 16.1 mph N/A   Mostly Cloudy
1:35 PM 66.2 °F 62.6 °F 88% 29.75 in 5.0 mi NW 8.1 mph - N/A   Overcast
1:55 PM 66.2 °F 62.6 °F 88% 29.76 in 10.0 mi Calm Calm - N/A   Mostly Cloudy
2:15 PM 68.0 °F 62.6 °F 83% 29.77 in 10.0 mi NNW 9.2 mph - N/A   Mostly Cloudy
2:35 PM 66.2 °F 60.8 °F 83% 29.78 in 10.0 mi NW 8.1 mph 16.1 mph N/A   Mostly Cloudy
2:55 PM 64.4 °F 57.2 °F 77% 29.80 in 10.0 mi NNW 9.2 mph 19.6 mph N/A   Scattered Clouds
3:15 PM 62.6 °F 57.2 °F 82% 29.80 in 10.0 mi NNW 12.7 mph 17.3 mph N/A   Scattered Clouds
3:35 PM 62.6 °F 55.4 °F 77% 29.80 in 10.0 mi NNW 5.8 mph - N/A   Mostly Cloudy
3:55 PM 60.8 °F 55.4 °F 82% 29.81 in 10.0 mi NNW 12.7 mph 17.3 mph N/A   Mostly Cloudy
4:15 PM 60.8 °F 53.6 °F 77% 29.82 in 10.0 mi North 10.4 mph - N/A   Scattered Clouds
4:35 PM 60.8 °F 53.6 °F 77% 29.85 in 10.0 mi NNW 8.1 mph - N/A   Mostly Cloudy
5:15 PM 59.0 °F 51.8 °F 77% 29.86 in 10.0 mi NNW 8.1 mph - N/A   Overcast
5:35 PM 57.2 °F 51.8 °F 82% 29.88 in 10.0 mi NNW 10.4 mph 17.3 mph N/A   Overcast
5:55 PM 57.2 °F 51.8 °F 82% 29.88 in 10.0 mi NNE 8.1 mph - N/A   Overcast
6:35 PM 57.2 °F 51.8 °F 82% 29.90 in 10.0 mi North 8.1 mph - N/A   Overcast
6:55 PM 57.2 °F 51.8 °F 82% 29.91 in 10.0 mi North 6.9 mph - N/A   Overcast
7:15 PM 57.2 °F 51.8 °F 82% 29.92 in 10.0 mi North 9.2 mph - N/A   Overcast
7:35 PM 55.4 °F 50.0 °F 82% 29.92 in 10.0 mi North 9.2 mph - N/A   Overcast
7:55 PM 57.2 °F 50.0 °F 77% 29.94 in 10.0 mi North 6.9 mph - N/A   Overcast
8:15 PM 55.4 °F 50.0 °F 82% 29.94 in 10.0 mi North 8.1 mph - N/A   Overcast
8:55 PM 55.4 °F 48.2 °F 77% 29.95 in 10.0 mi North 6.9 mph - N/A   Overcast
9:15 PM 55.4 °F 48.2 °F 77% 29.95 in 10.0 mi North 6.9 mph - N/A   Overcast
9:35 PM 55.4 °F 48.2 °F 77% 29.96 in 10.0 mi North 9.2 mph - N/A   Overcast
9:55 PM 55.4 °F 48.2 °F 77% 29.95 in 10.0 mi North 6.9 mph - N/A   Overcast
10:15 PM 55.4 °F 48.2 °F 77% 29.96 in 10.0 mi North 9.2 mph - N/A   Overcast
10:35 PM 55.4 °F 48.2 °F 77% 29.97 in 10.0 mi NNW 6.9 mph - N/A   Overcast
11:15 PM 53.6 °F 48.2 °F 82% 29.95 in 10.0 mi North 9.2 mph - N/A   Overcast
11:35 PM 53.6 °F 46.4 °F 77% 29.97 in 10.0 mi NW 12.7 mph 17.3 mph N/A   Overcast